GW3733 Weather Reports


Display with metric or nautical units.
time (UTC)temp
F
wind
direction
speed
MPH
gust
MPH
rain 1hr
in
rain 24hr
in
rain mn
in
humidity
%
barometer
mb
20260904032217 68 340 1.0 2.0 0.73 0.27 0.27 99 1014.3
20260904031711 69 299 1.0 1.0 1.37 0.26 0.26 99 1014.2
20260904031206 69 359 1.0 2.0 0.71 0.14 0.14 98 1015.1
20260904030702 70 298 2.0 2.0 0.07 0.03 0.03 95 1014.9
20260904030157 69 88 5.0 7.0 0.00 0.02 0.02 94 1014.6
20260904025654 69 3 0.0 0.0 0.00 0.02 0.02 94 1015.4
20260904025148 70 342 4.0 4.0 0.00 0.02 0.02 93 1014.7
20260904024644 70 308 4.0 4.0 0.00 0.02 0.02 93 1015.5
20260904024139 72 315 3.0 4.0 0.00 0.02 0.02 89 1014.4
20260904023635 73 335 2.0 3.0 0.00 0.02 0.02 86 1014.2
20260904023131 73 320 3.0 3.0 0.00 0.02 0.02 85 1014.5
20260904022625 73 308 4.0 4.0 0.00 0.02 0.02 84 1014.5
20260904022122 75 7 2.0 3.0 0.00 0.02 0.02 82 1013.5
20260904021617 77 315 3.0 4.0 0.00 0.02 0.02 77 1013.7
20260904021112 77 342 3.0 3.0 0.00 0.02 0.02 79 1014.0
20260904020608 78 348 0.0 0.0 0.00 0.02 0.02 86 1013.3
20260904015557 78 5 0.0 0.0 0.00 0.02 0.02 87 1012.9
20260904015056 78 348 0.0 1.0 0.00 0.02 0.02 86 1013.3
20260904014550 76 5 0.0 0.0 0.00 0.02 0.02 95 1013.0
20260904014046 76 355 0.0 0.0 0.00 0.02 0.02 98 1012.6
20260904013542 75 359 0.0 0.0 0.00 0.02 0.02 99 1012.6
20260904013038 75 359 0.0 0.0 0.00 0.02 0.02 99 1012.4
20260904012538 75 359 0.0 0.0 0.00 0.02 0.02 99 1012.1
20260904012037 75 359 0.0 0.0 0.00 0.02 0.02 99 1012.0
20260904011532 75 359 0.0 0.0 0.00 0.02 0.02 99 1011.6
20260904011027 76 359 0.0 0.0 0.00 0.02 0.02 99 1011.7
20260904010524 76 359 0.0 0.0 0.00 0.02 0.02 98 1011.8
20260904010019 76 359 0.0 0.0 0.00 0.02 0.02 98 1011.8
20260904005514 76 359 0.0 0.0 0.00 0.02 0.02 98 1011.8
20260904005009 76 359 0.0 0.0 0.00 0.02 0.02 98 1011.5
20260904004504 77 359 0.0 0.0 0.00 0.02 0.02 98 1011.7
20260904003959 77 359 0.0 0.0 0.00 0.02 0.02 98 1011.7
20260904003455 77 359 0.0 0.0 0.00 0.02 0.02 98 1011.5
20260904002950 77 359 0.0 0.0 0.00 0.02 0.02 98 1011.8
20260904002447 77 359 0.0 0.0 0.00 0.02 0.02 97 1011.6
20260904001945 78 359 0.0 0.0 0.00 0.02 0.02 97 1011.7
20260904001441 78 359 0.0 0.0 0.00 0.02 0.02 97 1011.5
20260904000941 78 359 0.0 0.0 0.00 0.02 0.02 96 1011.6
20260904000440 78 359 0.0 0.0 0.00 0.02 0.02 96 1011.7
20260903235936 78 359 0.0 0.0 0.00 0.02 0.02 96 1011.8
20260903235432 79 359 0.0 0.0 0.00 0.02 0.02 96 1011.9
20260903234926 79 359 0.0 0.0 0.00 0.02 0.02 95 1012.3
20260903234422 79 359 0.0 0.0 0.00 0.02 0.02 94 1012.4
20260903233918 80 359 0.0 0.0 0.00 0.02 0.02 94 1012.2
20260903233414 80 359 0.0 0.0 0.00 0.02 0.02 93 1012.1
20260903232913 80 359 0.0 0.0 0.00 0.02 0.02 92 1012.3
20260903232408 81 359 0.0 0.0 0.00 0.02 0.02 91 1012.2
20260903231908 81 359 0.0 0.0 0.00 0.02 0.02 91 1012.2
20260903231403 81 359 0.0 0.0 0.00 0.02 0.02 90 1012.1
20260903230858 82 359 0.0 0.0 0.00 0.02 0.02 88 1012.0
20260903230353 82 359 0.0 0.0 0.00 0.02 0.02 87 1011.5
20260903225850 82 359 0.0 0.0 0.00 0.02 0.02 87 1011.3
20260903225345 83 359 0.0 0.0 0.00 0.02 0.02 86 1011.3
20260903224842 83 359 0.0 0.0 0.00 0.02 0.02 85 1011.2
20260903224337 83 359 0.0 0.0 0.00 0.02 0.02 84 1011.4
20260903223833 84 356 0.0 0.0 0.00 0.02 0.02 84 1011.4
20260903223326 84 355 0.0 0.0 0.00 0.02 0.02 83 1011.3
20260903222821 85 356 0.0 0.0 0.00 0.02 0.02 81 1011.2
20260903222320 86 359 0.0 0.0 0.00 0.02 0.02 78 1011.4
20260903221814 86 4 0.0 0.0 0.00 0.02 0.02 79 1011.4
20260903221314 86 352 0.0 0.0 0.00 0.02 0.02 79 1011.1
20260903220812 86 3 0.0 0.0 0.00 0.02 0.02 79 1011.1
20260903220306 86 348 0.0 0.0 0.00 0.02 0.02 78 1011.2
20260903215759 86 12 0.0 0.0 0.00 0.02 0.02 75 1010.9
20260903215256 86 355 0.0 0.0 0.00 0.02 0.02 77 1011.0
20260903214753 87 258 1.0 2.0 0.00 0.02 0.02 73 1010.6
20260903214249 87 352 1.0 1.0 0.00 0.02 0.02 76 1010.4
20260903213743 87 3 1.0 1.0 0.00 0.02 0.02 74 1010.8
20260903213239 88 0 0.0 1.0 0.00 0.02 0.02 72 1010.8
20260903212730 88 352 0.0 0.0 0.00 0.02 0.02 70 1010.9
20260903212226 88 358 1.0 1.0 0.00 0.02 0.02 71 1010.9
20260903211719 88 331 0.0 1.0 0.00 0.02 0.02 70 1010.9
20260903211216 88 5 0.0 0.0 0.00 0.02 0.02 70 1010.8
20260903210711 89 34 1.0 1.0 0.00 0.02 0.02 73 1011.2
20260903210207 89 7 1.0 2.0 0.00 0.02 0.02 70 1011.2
20260903205701 88 3 0.0 0.0 0.00 0.02 0.02 70 1011.2
20260903205200 88 3 0.0 1.0 0.00 0.02 0.02 73 1011.2
20260903204656 89 299 1.0 1.0 0.00 0.02 0.02 72 1011.2
20260903204152 88 32 1.0 2.0 0.00 0.02 0.02 71 1011.2
20260903203647 88 22 0.0 1.0 0.00 0.02 0.02 72 1011.1
20260903203142 89 332 1.0 1.0 0.00 0.02 0.02 71 1011.1
20260903202637 90 352 0.0 0.0 0.00 0.02 0.02 68 1011.2
20260903202132 90 346 0.0 0.0 0.00 0.02 0.02 74 1011.3
20260903201631 91 332 0.0 1.0 0.00 0.02 0.02 70 1011.4
20260903201126 90 316 1.0 1.0 0.00 0.02 0.02 70 1011.7
20260903200621 91 352 1.0 1.0 0.00 0.02 0.02 67 1011.4
20260903200116 91 335 1.0 1.0 0.00 0.02 0.02 66 1011.7
20260903195612 90 353 0.0 1.0 0.00 0.02 0.02 66 1011.8
20260903195108 91 350 0.0 0.0 0.00 0.02 0.02 70 1011.8
20260903194603 90 342 0.0 0.0 0.00 0.02 0.02 66 1012.0
20260903194102 89 338 3.0 3.0 0.00 0.02 0.02 67 1011.9
20260903193559 90 344 1.0 1.0 0.00 0.02 0.02 67 1012.0
20260903193054 90 322 2.0 2.0 0.00 0.02 0.02 69 1012.2
20260903192550 91 346 0.0 0.0 0.00 0.02 0.02 70 1012.1
20260903192046 89 338 0.0 0.0 0.00 0.02 0.02 71 1012.3
20260903191536 89 314 0.0 0.0 0.00 0.02 0.02 72 1012.4
20260903191031 89 320 0.0 1.0 0.00 0.02 0.02 69 1012.5
20260903190530 89 344 1.0 1.0 0.00 0.02 0.02 71 1012.6
20260903190030 88 1 0.0 0.0 0.00 0.02 0.02 71 1012.5
20260903185520 87 327 1.0 1.0 0.00 0.02 0.02 73 1012.7
20260903185015 88 71 2.0 3.0 0.00 0.02 0.02 68 1013.0
20260903184511 88 345 1.0 1.0 0.00 0.02 0.02 68 1012.8
20260903184005 88 281 2.0 2.0 0.00 0.02 0.02 72 1013.0
20260903183500 88 336 1.0 1.0 0.00 0.02 0.02 68 1013.0
20260903182959 88 335 1.0 1.0 0.00 0.02 0.02 69 1012.8
20260903182458 87 357 0.0 0.0 0.00 0.02 0.02 70 1013.1
20260903181954 87 351 1.0 2.0 0.00 0.02 0.02 71 1013.1
20260903181447 86 42 2.0 2.0 0.00 0.02 0.02 69 1013.1
20260903180942 86 326 1.0 1.0 0.00 0.02 0.02 75 1013.2
20260903180437 85 8 2.0 2.0 0.00 0.02 0.02 74 1013.1
20260903175936 84 33 0.0 1.0 0.00 0.02 0.02 75 1013.2
20260903175431 85 331 2.0 2.0 0.00 0.02 0.02 75 1013.4
20260903174924 86 88 4.0 4.0 0.00 0.02 0.02 73 1013.3
20260903174420 85 34 2.0 2.0 0.00 0.02 0.02 75 1013.5
20260903173915 84 32 0.0 1.0 0.00 0.02 0.02 75 1014.0
20260903173414 84 353 1.0 2.0 0.00 0.02 0.02 77 1014.1
20260903172911 83 20 1.0 1.0 0.00 0.02 0.02 77 1014.3
20260903172411 83 27 1.0 1.0 0.00 0.02 0.02 77 1014.1
20260903171906 81 339 0.0 1.0 0.00 0.02 0.02 81 1014.2
20260903171401 80 352 0.0 0.0 0.00 0.02 0.02 80 1014.6
20260903170900 81 340 0.0 1.0 0.00 0.02 0.02 86 1014.4
20260903170355 81 0 0.0 1.0 0.00 0.02 0.02 79 1014.6
20260903165854 81 18 0.0 0.0 0.00 0.02 0.02 86 1014.5
20260903165349 80 349 1.0 1.0 0.00 0.02 0.02 84 1014.8
20260903164844 77 354 0.0 0.0 0.00 0.02 0.02 90 1014.9
20260903164339 76 353 0.0 0.0 0.00 0.02 0.02 90 1015.0
20260903163838 77 347 0.0 0.0 0.00 0.02 0.02 88 1015.1
20260903163335 77 346 0.0 0.0 0.00 0.02 0.02 85 1015.2
20260903162831 78 348 0.0 0.0 0.00 0.02 0.02 86 1015.2
20260903162327 79 341 0.0 1.0 0.00 0.02 0.02 85 1015.3
20260903161822 79 40 1.0 1.0 0.00 0.02 0.02 88 1015.4
20260903161318 77 339 0.0 0.0 0.00 0.02 0.02 90 1015.5
20260903160814 77 348 0.0 0.0 0.00 0.02 0.02 89 1015.4
20260903160312 78 356 0.0 0.0 0.00 0.02 0.02 86 1015.4
20260903155811 78 356 0.0 0.0 0.00 0.02 0.02 85 1015.7
20260903155307 78 356 0.0 0.0 0.00 0.02 0.02 88 1015.8
20260903154801 78 359 0.0 0.0 0.00 0.02 0.02 86 1015.9
20260903154258 78 9 0.0 0.0 0.00 0.02 0.02 86 1015.9
20260903153753 77 344 0.0 0.0 0.00 0.02 0.02 87 1015.9
20260903153249 77 340 1.0 1.0 0.00 0.02 0.02 87 1015.8
20260903152745 78 331 1.0 2.0 0.00 0.02 0.02 87 1015.4
20260903152241 77 1 0.0 0.0 0.00 0.02 0.02 87 1015.6
20260903151741 77 330 2.0 2.0 0.00 0.02 0.02 86 1015.9
20260903151236 78 336 3.0 3.0 0.00 0.02 0.02 85 1015.8
20260903150731 77 351 1.0 1.0 0.00 0.02 0.02 87 1015.5
20260903150225 77 326 1.0 2.0 0.00 0.02 0.02 90 1015.6
20260903145725 75 345 2.0 2.0 0.00 0.02 0.02 91 1016.0
20260903145220 75 1 0.0 0.0 0.00 0.02 0.02 92 1015.9
20260903144719 75 25 0.0 0.0 0.00 0.02 0.02 92 1015.8
20260903144215 76 8 1.0 2.0 0.00 0.02 0.02 92 1016.0
20260903143711 76 359 0.0 1.0 0.00 0.02 0.02 92 1015.3
20260903143207 75 3 0.0 1.0 0.00 0.02 0.02 96 1015.2
20260903142702 74 8 0.0 0.0 0.00 0.02 0.02 98 1015.1
20260903142158 73 7 0.0 0.0 0.00 0.02 0.02 98 1015.4
20260903141654 73 7 1.0 1.0 0.00 0.02 0.02 97 1015.0
20260903141149 74 8 0.0 0.0 0.00 0.02 0.02 98 1015.4
20260903140644 74 8 0.0 0.0 0.00 0.02 0.02 98 1015.3
20260903140139 74 8 0.0 0.0 0.00 0.02 0.02 98 1015.1
20260903135635 73 8 0.0 0.0 0.12 0.02 0.02 99 1015.1
20260903135130 73 8 0.0 0.0 0.12 0.02 0.02 98 1015.0
20260903134629 73 8 0.0 0.0 0.00 0.00 0.00 95 1014.8
20260903134125 74 5 0.0 0.0 0.00 0.00 0.00 95 1015.2
20260903133623 74 6 0.0 0.0 0.00 0.00 0.00 95 1015.1
20260903133119 73 6 0.0 0.0 0.00 0.00 0.00 96 1015.1
20260903132613 73 6 0.0 0.0 0.00 0.00 0.00 95 1015.1
20260903132108 73 7 0.0 0.0 0.00 0.00 0.00 94 1015.2
20260903131607 73 359 0.0 0.0 0.00 0.00 0.00 95 1015.6
20260903131106 73 1 0.0 0.0 0.00 0.00 0.00 95 1015.4
20260903130601 73 1 0.0 0.0 0.00 0.00 0.00 96 1015.4
20260903130056 72 5 0.0 0.0 0.00 0.00 0.00 97 1015.2
20260903125554 71 1 0.0 1.0 0.00 0.00 0.00 98 1015.1
20260903125050 71 358 0.0 0.0 0.00 0.00 0.00 99 1015.3
20260903124544 71 358 0.0 0.0 0.00 0.00 0.00 99 1015.6
20260903124039 71 358 0.0 0.0 0.00 0.00 0.00 99 1015.7
20260903123538 71 358 0.0 0.0 0.00 0.00 0.00 99 1015.6
20260903123037 71 358 0.0 0.0 0.00 0.00 0.00 99 1015.9
20260903122536 70 358 0.0 0.0 0.00 0.00 0.00 99 1015.8
20260903122031 70 358 0.0 0.0 0.00 0.00 0.00 99 1016.0
20260903121526 70 358 0.0 0.0 0.00 0.00 0.00 99 1015.9
20260903121022 70 358 0.0 0.0 0.00 0.00 0.00 99 1016.1
20260903120520 70 10 1.0 1.0 0.00 0.00 0.00 99 1016.1
20260903120015 70 355 0.0 0.0 0.00 0.00 0.00 99 1016.4
20260903115514 70 355 0.0 0.0 0.00 0.00 0.00 99 1016.4
20260903115013 70 354 0.0 0.0 0.00 0.00 0.00 99 1016.1
20260903114509 69 355 0.0 0.0 0.00 0.00 0.00 99 1015.9
20260903114004 69 3 0.0 1.0 0.00 0.00 0.00 99 1016.0
20260903113455 69 357 0.0 0.0 0.00 0.00 0.00 99 1015.9
20260903112950 69 7 1.0 1.0 0.00 0.00 0.00 99 1016.0
20260903112446 69 6 0.0 0.0 0.00 0.00 0.00 99 1015.8
20260903111945 69 357 0.0 0.0 0.00 0.00 0.00 99 1015.9
20260903111444 69 355 1.0 1.0 0.00 0.00 0.00 99 1015.6
20260903110941 69 357 0.0 0.0 0.00 0.00 0.00 99 1015.6
20260903110437 69 355 0.0 1.0 0.00 0.00 0.00 99 1015.4
20260903105931 69 356 0.0 0.0 0.00 0.00 0.00 99 1015.5
20260903105426 69 358 1.0 1.0 0.00 0.00 0.00 99 1015.1
20260903104926 69 356 0.0 1.0 0.00 0.00 0.00 99 1015.3
20260903104420 68 1 0.0 0.0 0.00 0.00 0.00 99 1015.1
20260903103917 68 0 0.0 0.0 0.00 0.00 0.00 99 1014.8
20260903103413 67 358 1.0 1.0 0.00 0.00 0.00 99 1014.9
20260903102908 67 359 0.0 1.0 0.00 0.00 0.00 99 1014.7
20260903102402 67 358 0.0 0.0 0.00 0.00 0.00 99 1014.4
20260903101902 67 358 0.0 0.0 0.00 0.00 0.00 99 1014.0
20260903101357 67 358 0.0 0.0 0.00 0.00 0.00 99 1014.0
20260903100853 67 358 0.0 0.0 0.00 0.00 0.00 99 1013.6
20260903100348 67 358 0.0 0.0 0.00 0.00 0.00 99 1013.3
20260903095844 66 358 0.0 0.0 0.00 0.00 0.00 99 1013.3
20260903095344 67 358 0.0 0.0 0.00 0.00 0.00 99 1013.4
20260903094840 67 358 0.0 0.0 0.00 0.00 0.00 99 1013.2
20260903094334 67 358 0.0 0.0 0.00 0.00 0.00 99 1013.1
20260903093830 67 358 0.0 0.0 0.00 0.00 0.00 99 1013.0
20260903093325 66 358 0.0 0.0 0.00 0.00 0.00 99 1013.0
20260903092820 66 358 0.0 0.0 0.00 0.00 0.00 99 1013.2
20260903092315 66 358 0.0 0.0 0.00 0.00 0.00 99 1013.2
20260903091813 66 358 0.0 0.0 0.00 0.00 0.00 99 1013.0
20260903091308 66 358 0.0 0.0 0.00 0.00 0.00 99 1012.9
20260903090804 67 358 0.0 0.0 0.00 0.00 0.00 99 1013.0
20260903090303 67 358 0.0 0.0 0.00 0.00 0.00 99 1012.9
20260903085802 67 358 0.0 0.0 0.00 0.00 0.00 99 1013.1
20260903085256 67 358 0.0 0.0 0.00 0.00 0.00 99 1013.2
20260903084754 67 358 0.0 0.0 0.00 0.00 0.00 99 1013.2
20260903084249 67 358 0.0 0.0 0.00 0.00 0.00 99 1013.3
20260903083744 67 358 0.0 0.0 0.00 0.00 0.00 99 1013.0
20260903083243 67 358 0.0 0.0 0.00 0.00 0.00 99 1012.8
20260903082743 67 358 0.0 0.0 0.00 0.00 0.00 99 1012.7
20260903082239 67 358 0.0 0.0 0.00 0.00 0.00 99 1013.0
20260903081739 67 358 0.0 0.0 0.00 0.00 0.00 99 1012.9
20260903081235 67 358 0.0 0.0 0.00 0.00 0.00 99 1013.0
20260903080731 67 358 0.0 0.0 0.00 0.00 0.00 99 1013.2
20260903080228 67 358 0.0 0.0 0.00 0.00 0.00 99 1012.7
20260903075728 67 358 0.0 0.0 0.00 0.00 0.00 99 1012.7
20260903075223 67 358 0.0 0.0 0.00 0.00 0.00 99 1012.8
20260903074722 67 358 0.0 0.0 0.00 0.00 0.00 99 1012.9
20260903074218 67 358 0.0 0.0 0.00 0.00 0.00 99 1012.6
20260903073713 68 358 0.0 0.0 0.00 0.00 0.00 99 1012.9
20260903073208 68 358 0.0 0.0 0.00 0.00 0.00 99 1012.9
20260903072703 68 358 0.0 0.0 0.00 0.00 0.00 99 1012.9
20260903072200 68 358 0.0 0.0 0.00 0.00 0.00 99 1013.1
20260903071655 68 358 0.0 0.0 0.00 0.00 0.00 99 1013.0
20260903071151 68 358 0.0 0.0 0.00 0.00 0.00 99 1013.0
20260903070646 67 358 0.0 0.0 0.00 0.00 0.00 99 1012.9
20260903070142 67 358 0.0 0.0 0.00 0.00 0.00 99 1013.0
20260903065641 67 358 0.0 0.0 0.00 0.00 0.00 99 1013.0
20260903065136 67 358 0.0 0.0 0.00 0.00 0.00 99 1013.0
20260903064635 67 358 0.0 0.0 0.00 0.00 0.00 99 1013.0
20260903064130 67 358 0.0 0.0 0.00 0.00 0.00 99 1012.9
20260903063626 68 358 0.0 0.0 0.00 0.00 0.00 99 1012.8
20260903063121 68 358 0.0 0.0 0.00 0.00 0.00 99 1012.7
20260903062617 68 358 0.0 0.0 0.00 0.00 0.00 99 1013.0
20260903062112 67 358 0.0 0.0 0.00 0.00 0.00 99 1012.9
20260903061607 67 358 0.0 0.0 0.00 0.00 0.00 99 1012.8
20260903061107 67 358 0.0 0.0 0.00 0.00 0.00 99 1012.8
20260903060606 68 358 0.0 0.0 0.00 0.00 0.00 99 1012.9
20260903055559 68 358 0.0 0.0 0.00 0.00 0.00 99 1012.9
20260903055057 68 358 0.0 0.0 0.00 0.00 0.00 99 1013.0
20260903054552 68 358 0.0 0.0 0.00 0.00 0.00 99 1013.1
20260903054049 69 358 0.0 0.0 0.00 0.00 0.00 99 1013.1
20260903053543 69 358 0.0 0.0 0.00 0.00 0.00 99 1013.0
20260903053040 68 358 0.0 0.0 0.00 0.00 0.00 99 1012.9
20260903052535 69 358 0.0 0.0 0.00 0.00 0.00 99 1013.0
20260903052031 69 358 0.0 0.0 0.00 0.00 0.00 99 1013.1
20260903051530 69 358 0.0 0.0 0.00 0.00 0.00 99 1013.1
20260903051027 69 358 0.0 0.0 0.00 0.00 0.00 99 1013.2
20260903050525 69 358 0.0 0.0 0.00 0.00 0.00 99 1013.1
20260903050021 70 358 0.0 0.0 0.00 0.00 0.00 99 1013.1
20260903045520 70 358 0.0 0.0 0.00 0.00 0.00 99 1013.4
20260903045017 70 358 0.0 0.0 0.00 0.00 0.00 99 1013.3
20260903044513 70 358 0.0 0.0 0.00 0.00 0.00 99 1013.3
20260903044008 70 358 0.0 0.0 0.00 0.00 0.00 99 1013.2
20260903043504 70 358 0.0 0.0 0.00 0.00 0.00 99 1013.3
20260903043002 70 358 0.0 0.0 0.00 0.00 0.00 99 1013.2
20260903042458 70 358 0.0 0.0 0.00 0.00 0.00 99 1013.3
20260903041953 70 358 0.0 0.0 0.00 0.00 0.00 99 1013.2
20260903041450 70 358 0.0 0.0 0.00 0.00 0.00 99 1013.4
20260903040945 70 358 0.0 0.0 0.00 0.00 0.00 99 1013.4
20260903040444 71 358 0.0 0.0 0.00 0.00 0.00 99 1013.5
20260903035941 71 358 0.0 0.0 0.00 0.00 0.00 99 1013.6
20260903035437 71 358 0.0 0.0 0.00 0.00 0.00 99 1013.4
20260903034932 71 358 0.0 0.0 0.00 0.00 0.00 99 1013.6
20260903034432 71 358 0.0 0.0 0.00 0.00 0.00 99 1013.6
20260903033927 71 358 0.0 0.0 0.00 0.00 0.00 99 1013.4
20260903033422 71 358 0.0 0.0 0.00 0.00 0.00 99 1013.3
20260903032917 71 358 0.0 0.0 0.00 0.00 0.00 99 1013.5